Regional Weather Roundup
Issued by NWS

Home | Current Version | Previous Version | Text Only | Print | Product List | Glossary On
Versions: 1 2 3 4 5 6 7 8 9 10 11 12 13 14 15 16 17 18 19 20 21 22 23 24 25 26 27 28 29 30 31 32 33 34 35 36 37 38 39 40 41 42 43 44 45 46 47 48 49 50
000
ASUS44 KFWD 300215
RWRTX
NORTH TEXAS HOURLY WEATHER ROUNDUP
NATIONAL WEATHER SERVICE FORT WORTH TX
900 PM CDT WED MAR 29 2017

NOTE: "FAIR" INDICATES FEW OR NO CLOUDS BELOW 12,000 FEET WITH NO
SIGNIFICANT WEATHER AND/OR OBSTRUCTIONS TO VISIBILITY.

TXZ118-119-300300-
DALLAS/FORT WORTH METROPLEX

CITY           SKY/WX    TMP DP  RH WIND       PRES   REMARKS
DFW AIRPORT    PTCLDY    67  53  61 NW21      29.78R
DALLAS LOVE    PTCLDY    69  53  56 NW15      29.79R
FTW MEACHAM    CLEAR     63  50  62 NW15      29.81R
DAL-EXECUTIVE  PTCLDY    67  54  63 NW14      29.79R
FTW-ALLIANCE   PTCLDY    62  51  67 NW14G23   29.82R
FTW-NAS-JRB    CLEAR     64  52  64 NW17      29.82R
FTW-SPINKS     CLEAR     65  52  63 NW15      29.83R
ARLINGTON      PTCLDY   N/A N/A N/A NW21G30   29.80R
ADDISON        CLEAR     66  54  63 NW16G23   29.79R
MESQUITE       MOCLDY    70  52  52 NW18      29.78R
LANCASTER      CLOUDY    69  52  55 NW14      29.79R
$$

TXZ091>094-102>105-117-120-121-131>134-300300-
NORTH CENTRAL TEXAS

CITY           SKY/WX    TMP DP  RH WIND       PRES   REMARKS
SHRMAN/DENISON PTCLDY    61  50  65 W14       29.81R
GAINESVILLE    CLEAR     56  46  68 NW13G21   29.85R
BOWIE          PTCLDY    55  47  74 NW9       29.85R
BRIDGEPORT     PTCLDY    58  48  71 NW8       29.88R
DECATUR        CLEAR     56  46  69 NW9G16    29.85R
DENTON         CLEAR     60  51  72 NW14      29.81R
MCKINNEY       PTCLDY    65  55  70 NW14G22   29.78R
BONHAM         CLOUDY    66  54  63 W10       29.76R
GREENVILLE     CLOUDY    72  45  37 W7        29.76R
ROCKWALL       CLOUDY    69  54  59 NW15G23   29.77R
TERRELL        CLOUDY    68  51  54 SW6       29.76R
WAXAHACHIE     PTCLDY    67  55  63 NW13      29.80R
CLEBURNE       CLEAR     63  55  77 NW14      29.84R
GRANBURY       CLEAR     63  53  68 NW12G17   29.86R
$$

TXZ083>090-098>101-113>116-127>130-139>142-154-155-300300-
WESTERN NORTH TEXAS

CITY           SKY/WX    TMP DP  RH WIND       PRES   REMARKS
WICHITA FALLS  CLOUDY    54  43  66 NW16      29.86R
WF-KICKAPOO    CLOUDY    56  44  63 NW12G21   29.88R
VERNON         PTCLDY    52  42  69 W10       29.89R
ABILENE        CLOUDY    52  48  86 NW10      29.94R
ABILENE-DYESS  PTCLDY    53  49  88 NW9       29.94R
GRAHAM         CLOUDY    57  47  70 NW14      29.87R
BRECKENRIDGE   CLOUDY    56  49  75 NW14      29.91R
CISCO          CLOUDY    54  50  87 NW12G21   29.91R
RANGER         CLOUDY    55  48  76 NW15G21   29.90R
MINERAL WELLS  CLOUDY    59  48  67 NW10G20   29.85R
STEPHENVILLE   CLEAR     61  50  68 NW14G20   29.89R
COMANCHE       PTCLDY    59  51  75 NW15G21   29.90R
BROWNWOOD      MOCLDY    57  50  77 NW16G24   29.91R
COLEMAN        CLOUDY    55  47  73 NW16      29.94R
$$

TXZ143>147-156>162-174-175-300300-
CENTRAL TEXAS

CITY           SKY/WX    TMP DP  RH WIND       PRES   REMARKS
WACO           CLEAR     63  53  70 W8        29.79R
WACO-TSTC      CLEAR     68  48  49 W7        29.79R
WACO-MCGREGOR  CLEAR     67  51  56 W7        29.80R
HILLSBORO      CLEAR     66  55  66 NW10      29.80R
CORSICANA      PTCLDY    68  54  60 S5        29.78R
MEXIA          PTCLDY    69  50  51 SW3       29.78S
HEARNE         PTCLDY    62  60  93 CALM      29.80R
CAMERON        CLEAR     67  54  63 CALM      29.79R
TEMPLE         PTCLDY    68  51  54 NW3       29.81R
KILLEEN        CLEAR     69  47  44 NW8       29.82R
KILLEEN-SKYLRK CLEAR     71  48  43 NW10      29.82R
FORT HOOD      CLEAR     68  49  49 NW9       29.80R
GATESVILLE     CLEAR     66  48  52 NW5       29.85R
HAMILTON       CLEAR     65  46  48 NW16G22   29.86R
LAMPASAS       CLEAR     69  49  48 NW8       29.85R
$$

TXZ095>097-106>112-122>126-135>138-148>153-164>167-300300-
EAST TEXAS

CITY           SKY/WX    TMP DP  RH WIND       PRES   REMARKS
PARIS          PTCLDY    64  48  55 W7        29.72S
SULPHUR SPRNGS CLEAR     68  50  53 SW8       29.75S
MOUNT PLEASANT CLOUDY    63  59  87 SE5       29.74R
GILMER         MOCLDY    67  63  87 S3        29.73S
MINEOLA        CLEAR     70  50  49 S6        29.74S
TYLER          CLEAR     70  53  54 W9        29.75R
LONGVIEW       CLEAR     69  66  90 S9        29.73S
MARSHALL       CLEAR     67  63  86 MISG      29.75S
ATHENS         PTCLDY    68  48  49 CALM      29.76R
PALESTINE      CLEAR     67  56  67 W7        29.79R
JACKSONVILLE   LGT RAIN  67  66  95 SE5       29.79R
HENDERSON      CLEAR     68  64  86 S6        29.76S
NACOGDOCHES    CLEAR     64  63  94 S5        29.75S
LUFKIN         CLEAR     63  62  97 CALM      29.77R
$$

SUPPLEMENTAL OBSERVATIONS (CENTRAL)

CITY           SKY/WX    TMP DP  RH WIND       PRES   REMARKS
DENISON DAM      N/A     63  52  67 W22         N/A
CADDO GRASSLND   N/A     68  52  56 W5G13       N/A
PAT MAYSE LAKE   N/A     68  45  42 W10         N/A
GREENVILLE       N/A     70  46  43 W10         N/A
CEDAR HILL       N/A     66  54  63 NW5G14      N/A
ATHENS           N/A     66  52  59 CALM        N/A
LAKE LIMESTONE   N/A     64  54  68 CALM        N/A
MCGREGOR         N/A     68  46  45 W2          N/A
TEMPLE           N/A     70  46  43 CALM        N/A
$$

SUPPLEMENTAL OBSERVATIONS (WEST)

CITY           SKY/WX    TMP DP  RH WIND       PRES   REMARKS
MILLERS CREEK    N/A     54  43  66 NW10G21     N/A
POSSUM KINGDOM   N/A     57  45  62 NW13G21     N/A
LBJ GRASSLAND    N/A     57  46  67 NW8G18      N/A
GRANBURY         N/A     63  52  67 NW14G22     N/A
COMANCHE         N/A     57  48  72 NW16G25     N/A
HAMBY            N/A     52  46  82 NW9         N/A
IVIE RESERVOIR   N/A     55  46  71 NW16G29     N/A
COLORADO BEND    N/A     64  43  45 N8G17       N/A
$$

SUPPLEMENTAL OBSERVATIONS (EAST)

CITY           SKY/WX    TMP DP  RH WIND       PRES   REMARKS
CLARKSVILLE      N/A     66  52  59 CALM        N/A
TEXARKANA        N/A     66  64  94 W1          N/A
LINDEN           N/A     70  64  83 W2          N/A
CADDO LAKE       N/A     70  64  83 SE3         N/A
GILMER           N/A     68  63  83 SW5G26      N/A
HENDERSON        N/A     70  64  83 S7          N/A
LUFKIN           N/A     64  61  88 MISG        N/A
N SABINE NF      N/A     64  63  94 MISG        N/A
S SABINE NF      N/A     64  63  94 W1          N/A
$$

SUPPLEMENTAL OBSERVATIONS ARE A COLLECTION OF AUTOMATED INSTRUMENTS
THAT ARE MAINTAINED BY A VARIETY OF FEDERAL AND STATE AGENCIES.
CERTAIN ELEMENTS...SUCH AS HUMIDITY VALUES AND SUSTAINED WIND
SPEEDS...MAY BE APPROXIMATED.





USA.gov is the U.S. government's official web portal to all federal, state and local government web resources and services.